• In Deutschland
  • Länderverzeichnis
  • Für 7 Tage
  • Wassertemperatur
  • Satellitenkarten
  • Wetterkarte
  • Widgets
  • user-avatar
    Anmelden

    Stündliche Wetter Ali Bajramli

    Heute, 24 September, Sonntag

    Zeit Temperatur Niederschläge Wind Luftdruck Luftfeuchtigkeit
    00:00 +24°C° 0 mm 6 m/S 760 mmHg 58%
    01:00 +24°C° 0 mm 6 m/S 760 mmHg 60%
    02:00 +23°C° 0 mm 5 m/S 761 mmHg 62%
    03:00 +23°C° 0 mm 4 m/S 761 mmHg 64%
    04:00 +22°C° 0 mm 4 m/S 761 mmHg 66%
    05:00 +22°C° 0 mm 4 m/S 761 mmHg 67%
    06:00 +22°C° 0 mm 3 m/S 761 mmHg 69%
    07:00 +24°C° 0 mm 3 m/S 762 mmHg 62%
    08:00 +26°C° 0 mm 4 m/S 762 mmHg 56%
    09:00 +27°C° 0 mm 4 m/S 762 mmHg 49%
    10:00 +28°C° 0 mm 4 m/S 762 mmHg 45%
    11:00 +29°C° 0 mm 4 m/S 762 mmHg 41%
    12:00 +32°C° 0 mm 4 m/S 762 mmHg 36%
    13:00 +32°C° 0 mm 5 m/S 762 mmHg 37%
    14:00 +32°C° 0 mm 6 m/S 762 mmHg 37%
    15:00 +32°C° 0 mm 7 m/S 762 mmHg 37%
    16:00 +29°C° 0 mm 7 m/S 762 mmHg 44%
    17:00 +28°C° 0 mm 7 m/S 762 mmHg 50%
    18:00 +27°C° 0 mm 7 m/S 762 mmHg 56%
    19:00 +26°C° 0 mm 7 m/S 762 mmHg 58%
    20:00 +24°C° 0 mm 6 m/S 762 mmHg 61%
    21:00 +25°C° 0 mm 5 m/S 762 mmHg 63%
    22:00 +25°C° 0 mm 5 m/S 762 mmHg 63%
    23:00 +23°C° 0 mm 4 m/S 762 mmHg 63%

    Morgen, 25 September, Montag

    Zeit Temperatur Niederschläge Wind Luftdruck Luftfeuchtigkeit
    00:00 +24°C° 0 mm 3 m/S 762 mmHg 63%
    01:00 +24°C° 0 mm 3 m/S 762 mmHg 64%
    02:00 +22°C° 0 mm 3 m/S 762 mmHg 66%
    03:00 +23°C° 0 mm 2 m/S 762 mmHg 67%
    04:00 +23°C° 0 mm 2 m/S 762 mmHg 67%
    05:00 +23°C° 0 mm 2 m/S 762 mmHg 68%
    06:00 +21°C° 0 mm 2 m/S 762 mmHg 69%
    07:00 +24°C° 0 mm 2 m/S 762 mmHg 63%
    08:00 +25°C° 0 mm 2 m/S 763 mmHg 57%
    09:00 +27°C° 0 mm 2 m/S 763 mmHg 51%
    10:00 +28°C° 0 mm 2 m/S 763 mmHg 46%
    11:00 +29°C° 0 mm 2 m/S 762 mmHg 42%
    12:00 +30°C° 0 mm 2 m/S 762 mmHg 38%
    13:00 +31°C° 0 mm 3 m/S 762 mmHg 36%
    14:00 +32°C° 0 mm 4 m/S 762 mmHg 34%
    15:00 +33°C° 0 mm 5 m/S 761 mmHg 32%
    16:00 +30°C° 0 mm 6 m/S 761 mmHg 34%
    17:00 +29°C° 0 mm 7 m/S 762 mmHg 37%
    18:00 +28°C° 0 mm 9 m/S 762 mmHg 39%
    19:00 +27°C° 0 mm 8 m/S 762 mmHg 41%
    20:00 +27°C° 0 mm 8 m/S 762 mmHg 43%
    21:00 +26°C° 0 mm 8 m/S 763 mmHg 46%
    22:00 +24°C° 0 mm 8 m/S 763 mmHg 48%
    23:00 +24°C° 0 mm 7 m/S 763 mmHg 50%

    übermorgen, 26 September, Dienstag

    Zeit Temperatur Niederschläge Wind Luftdruck Luftfeuchtigkeit
    00:00 +23°C° 0 mm 7 m/S 763 mmHg 53%
    01:00 +23°C° 0 mm 6 m/S 762 mmHg 55%
    02:00 +22°C° 0 mm 6 m/S 762 mmHg 57%
    03:00 +22°C° 0 mm 5 m/S 762 mmHg 60%
    04:00 +21°C° 0 mm 5 m/S 762 mmHg 62%
    05:00 +21°C° 0 mm 5 m/S 762 mmHg 64%
    06:00 +21°C° 0 mm 4 m/S 762 mmHg 66%
    07:00 +22°C° 0 mm 5 m/S 763 mmHg 61%
    08:00 +23°C° 0 mm 5 m/S 763 mmHg 56%
    09:00 +25°C° 0 mm 5 m/S 763 mmHg 50%
    10:00 +26°C° 0 mm 5 m/S 763 mmHg 48%
    11:00 +27°C° 0 mm 5 m/S 763 mmHg 45%
    12:00 +27°C° 0 mm 6 m/S 762 mmHg 42%
    13:00 +27°C° 0 mm 6 m/S 762 mmHg 42%
    14:00 +27°C° 0 mm 7 m/S 762 mmHg 43%
    15:00 +27°C° 0 mm 8 m/S 762 mmHg 43%
    16:00 +26°C° 0 mm 8 m/S 762 mmHg 46%
    17:00 +24°C° 0 mm 8 m/S 762 mmHg 50%
    18:00 +23°C° 0 mm 8 m/S 763 mmHg 53%
    19:00 +22°C° 0 mm 8 m/S 763 mmHg 56%
    20:00 +22°C° 0 mm 7 m/S 763 mmHg 58%
    21:00 +22°C° 0 mm 7 m/S 763 mmHg 60%
    22:00 +21°C° 0 mm 6 m/S 763 mmHg 61%
    23:00 +21°C° 0 mm 6 m/S 763 mmHg 62%

    27 September, Mittwoch

    Zeit Temperatur Niederschläge Wind Luftdruck Luftfeuchtigkeit
    00:00 +21°C° 0 mm 6 m/S 763 mmHg 62%
    01:00 +21°C° 0 mm 5 m/S 763 mmHg 62%
    02:00 +21°C° 0 mm 5 m/S 762 mmHg 63%
    03:00 +21°C° 0 mm 5 m/S 762 mmHg 63%
    04:00 +21°C° 0 mm 4 m/S 762 mmHg 63%
    05:00 +21°C° 0 mm 4 m/S 762 mmHg 63%
    06:00 +21°C° 0 mm 3 m/S 762 mmHg 63%
    07:00 +21°C° 0 mm 4 m/S 762 mmHg 62%
    08:00 +21°C° 0 mm 4 m/S 762 mmHg 61%
    09:00 +21°C° 0 mm 4 m/S 762 mmHg 61%
    10:00 +22°C° 0 mm 4 m/S 762 mmHg 58%
    11:00 +23°C° 0 mm 4 m/S 762 mmHg 56%
    12:00 +23°C° 0 mm 4 m/S 762 mmHg 54%
    13:00 +23°C° 0 mm 5 m/S 762 mmHg 54%
    14:00 +25°C° 0 mm 5 m/S 762 mmHg 53%
    15:00 +25°C° 0 mm 5 m/S 761 mmHg 52%
    16:00 +23°C° 0 mm 6 m/S 762 mmHg 55%
    17:00 +23°C° 0 mm 6 m/S 762 mmHg 57%
    18:00 +22°C° 0 mm 7 m/S 762 mmHg 59%
    19:00 +22°C° 0 mm 7 m/S 763 mmHg 60%
    20:00 +21°C° 0 mm 7 m/S 763 mmHg 61%
    21:00 +21°C° 0 mm 7 m/S 763 mmHg 62%
    22:00 +21°C° 0,2 mm 7 m/S 763 mmHg 65%
    23:00 +20°C° 0,2 mm 7 m/S 763 mmHg 67%

    28 September, Donnerstag

    Zeit Temperatur Niederschläge Wind Luftdruck Luftfeuchtigkeit
    00:00 +20°C° 0,2 mm 7 m/S 763 mmHg 70%
    01:00 +20°C° 0,3 mm 6 m/S 763 mmHg 71%
    02:00 +20°C° 0,3 mm 6 m/S 763 mmHg 71%
    03:00 +20°C° 0,3 mm 6 m/S 763 mmHg 72%
    04:00 +20°C° 0,4 mm 6 m/S 763 mmHg 73%
    05:00 +20°C° 0,4 mm 6 m/S 764 mmHg 74%
    06:00 +20°C° 0,4 mm 6 m/S 764 mmHg 75%
    07:00 +18°C° 0,6 mm 7 m/S 764 mmHg 75%
    08:00 +18°C° 0,6 mm 8 m/S 765 mmHg 75%
    09:00 +18°C° 0,6 mm 9 m/S 765 mmHg 75%
    10:00 +18°C° 0,6 mm 9 m/S 765 mmHg 74%
    11:00 +18°C° 0,6 mm 9 m/S 765 mmHg 72%
    12:00 +17°C° 0,6 mm 9 m/S 765 mmHg 71%
    13:00 +17°C° 0,5 mm 9 m/S 765 mmHg 71%
    14:00 +17°C° 0,5 mm 8 m/S 765 mmHg 71%
    15:00 +17°C° 0,5 mm 8 m/S 765 mmHg 71%
    16:00 +17°C° 0,3 mm 8 m/S 765 mmHg 71%
    17:00 +17°C° 0,3 mm 8 m/S 766 mmHg 72%
    18:00 +17°C° 0,3 mm 7 m/S 766 mmHg 72%
    19:00 +17°C° 0,2 mm 7 m/S 766 mmHg 73%
    20:00 +17°C° 0,2 mm 7 m/S 766 mmHg 73%
    21:00 +17°C° 0,2 mm 6 m/S 766 mmHg 73%
    22:00 +17°C° 0,2 mm 6 m/S 766 mmHg 72%
    23:00 +17°C° 0,2 mm 6 m/S 765 mmHg 72%

    29 September, Freitag

    Zeit Temperatur Niederschläge Wind Luftdruck Luftfeuchtigkeit
    00:00 +17°C° 0,2 mm 6 m/S 765 mmHg 71%
    01:00 +17°C° 0,2 mm 6 m/S 765 mmHg 70%
    02:00 +17°C° 0,2 mm 6 m/S 765 mmHg 70%
    03:00 +17°C° 0,2 mm 6 m/S 765 mmHg 69%
    04:00 +17°C° 0,2 mm 5 m/S 765 mmHg 69%
    05:00 +17°C° 0,2 mm 5 m/S 765 mmHg 69%
    06:00 +17°C° 0,2 mm 5 m/S 765 mmHg 68%
    07:00 +17°C° 0,1 mm 5 m/S 765 mmHg 67%
    08:00 +17°C° 0,1 mm 5 m/S 766 mmHg 66%
    09:00 +17°C° 0,1 mm 5 m/S 766 mmHg 65%
    10:00 +19°C° 0,1 mm 5 m/S 766 mmHg 62%
    11:00 +19°C° 0,1 mm 5 m/S 765 mmHg 60%
    12:00 +20°C° 0,1 mm 5 m/S 765 mmHg 58%
    13:00 +20°C° 0 mm 5 m/S 765 mmHg 56%
    14:00 +20°C° 0 mm 5 m/S 765 mmHg 54%
    15:00 +21°C° 0 mm 5 m/S 765 mmHg 52%
    16:00 +20°C° 0 mm 5 m/S 765 mmHg 52%
    17:00 +20°C° 0 mm 4 m/S 765 mmHg 53%
    18:00 +20°C° 0 mm 4 m/S 765 mmHg 54%
    19:00 +20°C° 0 mm 4 m/S 766 mmHg 54%
    20:00 +20°C° 0 mm 4 m/S 766 mmHg 54%
    21:00 +20°C° 0 mm 4 m/S 766 mmHg 54%
    22:00 +19°C° 0 mm 4 m/S 765 mmHg 54%
    23:00 +19°C° 0 mm 4 m/S 765 mmHg 55%
    Mehr zeigen